This is the latest recevied weather packets stored in our database for station/object EA3CH. If no packets are shown the sender has not sent any weather packets the latest 10 day(s).
| Time | Temp. | Humidity | Pressure | Rain* | Wind** | Luminosity | Snow |
|---|---|---|---|---|---|---|---|
| 1787597103 | 22.78° C | 79% | 1013.3 hPa | 0 mm | - | 0 W/m² | - |
| 1787596204 | 23.33° C | 83% | 1013.2 hPa | 0 mm | - | 0 W/m² | - |
| 1787595304 | 23.89° C | 77% | 1013.2 hPa | 0 mm | - | 0 W/m² | - |
| 1787594404 | 24.44° C | 84% | 1013.2 hPa | 0 mm | - | 0 W/m² | - |
| 1787593503 | 24.44° C | 84% | 1012.6 hPa | 0 mm | - | 0 W/m² | - |
| 1787592605 | 24.44° C | 76% | 1012.6 hPa | 0 mm | - | 0 W/m² | - |
| 1787592604 | 24.44° C | 84% | 1012.8 hPa | 0 mm | - | 0 W/m² | - |
| 1787591704 | 24.44° C | 85% | 1012.6 hPa | 0 mm | - | 0 W/m² | - |
| 1787590804 | 23.89° C | 89% | 1012.6 hPa | 0 mm | - | 0 W/m² | - |
| 1787589904 | 23.33° C | 88% | 1012.7 hPa | 0 mm | - | 0 W/m² | - |
| 1787589006 | 23.33° C | 86% | 1012.3 hPa | 0 mm | - | 0 W/m² | - |
| 1787588106 | 23.89° C | 77% | 1011.9 hPa | 0 mm | - | 0 W/m² | - |
| 1787588104 | 23.33° C | 85% | 1012.1 hPa | 0 mm | - | 0 W/m² | - |
| 1787587206 | 23.89° C | 77% | 1012.4 hPa | 0 mm | - | 0 W/m² | - |
| 1787587203 | 23.89° C | 86% | 1012.6 hPa | 0 mm | - | 0 W/m² | - |
| 1787586307 | 23.89° C | 76% | 1012.1 hPa | 0 mm | - | 0 W/m² | - |
| 1787586304 | 23.89° C | 85% | 1012.3 hPa | 0 mm | - | 0 W/m² | - |
| 1787585407 | 24.44° C | 76% | 1011.5 hPa | 0 mm | - | 0 W/m² | - |
| 1787585404 | 24.44° C | 83% | 1011.9 hPa | 0 mm | - | 0 W/m² | - |
| 1787584507 | 25° C | 75% | 1012.1 hPa | 0 mm | - | 0 W/m² | - |
| 1787584504 | 24.44° C | 83% | 1012.2 hPa | 0 mm | - | 0 W/m² | - |
| 1787583606 | 25.56° C | 74% | 1012.1 hPa | 0 mm | - | 0 W/m² | - |
| 1787583604 | 25.56° C | 82% | 1012.3 hPa | 0 mm | - | 0 W/m² | - |
| 1787582706 | 25.56° C | 72% | 1012.8 hPa | 0 mm | - | 0 W/m² | - |
| 1787582704 | 26.11° C | 80% | 1012.9 hPa | 0 mm | - | 0 W/m² | - |
* Rain latest hour (hover to see other rain measurements)
** Current wind speed in m/s (hover to see current wind gust speed)